Regional Weather Roundup
Issued by NWS Grand Forks, ND

Home | Current Version | Previous Version | Graphics & Text | Print | Product List | Glossary On
Versions: 1 2 3 4 5 6 7 8 9 10 11 12 13 14 15 16 17 18 19 20 21 22 23 24 25 26 27 28 29 30 31 32 33 34 35 36 37 38 39 40 41 42 43 44 45 46 47 48 49 50
000
ASUS43 KFGF 012010
RWRFGF
PRAIRIE TO PINES  WEATHER ROUNDUP
NATIONAL WEATHER SERVICE EASTERN NORTH DAKOTA/GRAND FORKS ND
300 PM CDT WED APR 01 2015

 **SATELLITE DATA USED TO AUGMENT SKY COVER AT AUTOMATED STATIONS**
 *****  WEATHER ACROSS EASTERN NORTH DAKOTA  *****

CITY           SKY/WX    TMP DP  RH WIND       PRES   REMARKS
GRAND FORKS    PTSUNNY   64  38  38 W17       29.34R
GRAND FRKS AFB PTSUNNY   60  40  46 NW20      29.35R
GRAND FRKS NWS   N/A     61 N/A N/A NW22        N/A
DEVILS LAKE    CLOUDY    54  43  66 W24G33    29.43R
FARGO          PTSUNNY   71  34  25 W25G32    29.35S
WAHPETON ARPT  CLOUDY    68  32  26 W23       29.39R
$$

 ***** WEATHER ACROSS CENTRAL AND WESTERN NORTH DAKOTA  *****

CITY           SKY/WX    TMP DP  RH WIND       PRES   REMARKS
BISMARCK       PTSUNNY   64  26  23 NW25G35   29.57S
MINOT          LGT RAIN  57  35  43 W31G40    29.52R
JAMESTOWN      PTSUNNY   62  41  46 NW26G36   29.45R
MINOT AFB      MOSUNNY   54  38  54 NW32G43   29.51R
GARRISON         N/A     59  34  39 W30G41    29.55R
WILLISTON      PTSUNNY   54  28  36 NW25G31   29.64R
DICKINSON      MOSUNNY   56  27  32 NW32G41   29.63R
HETTINGER      PTSUNNY   57  19  22 W35G47    29.67R
$$

 *****  OTHER AIRPORT OBSERVATIONS IN OUR AREA  *****

CITY           SKY/WX    TMP DP  RH WIND       PRES   REMARKS
WALHALLA         N/A     57  41  54 W12       29.36R
GRAFTON AIRPOR NOT AVBL
VALLEY CITY AR FAIR      63  41  45 NW26G43   29.43R
CANDO          NOT AVBL
CAVALIER APRT  FAIR      57  41  54 W17       29.35R
GWINNER        CLEAR     68  39  34 NW33G39     N/A
ROLLA          MOCLDY    55  45  67 NW21G26   29.43R
 ***** THE ABOVE OBSERVATIONS ARE NON NWS ARE NOT QUALITY
       CONTROLLED AND MAY MIS-REPORT RAIN FOR SNOW...
$$

  *****  WEATHER ACROSS NORTHERN MINNESOTA  *****

CITY           SKY/WX    TMP DP  RH WIND       PRES   REMARKS
FLAG ISLAND    PTSUNNY   54  34  47 SE6       29.35F
WARROAD        CLOUDY    61  43  51 SE14G20   29.35F
ROSEAU         PTSUNNY   64  39  39 S10G16    29.35S
HALLOCK        PTSUNNY   63  39  42 W12       29.32F
THF RVR FALLS  PTSUNNY   68  39  34 SW20G26   29.34R
BAUDETTE       CLOUDY    60  36  40 S14G22    29.35F
WASKISH        CLOUDY    61  39  44 SE15G23   29.34F
CROOKSTON      MOSUNNY   68  37  32 SW17G23   29.35R
STEPHEN NDAWN    N/A     63  39  42 W10         N/A
GREENBUSH NDAW   N/A     64  45  48 S10         N/A
$$
  *****  WEATHER ACROSS CENTRAL AND WEST MINNESOTA  *****

CITY           SKY/WX    TMP DP  RH WIND       PRES   REMARKS
FOSSTON        PTSUNNY   68  39  34 S21G32    29.35R
BEMIDJI        CLOUDY    67  39  36 S15G22    29.37F
PARK RAPIDS    CLOUDY    71  40  32 S17G28    29.38F
ELBOW LAKE     FAIR      67  45  45 SW9       29.42S
WADENA         CLOUDY    66  43  42 S12G17    29.40F
DETROIT LAKES  CLOUDY    68  36  30 SW16      29.39S
MOORHEAD       PTSUNNY   72  27  18 W18       29.36S
FERGUS FALLS   CLOUDY    66  34  30 SW20      29.41S
MORRIS MN      CLOUDY    72  45  37 SW15G23   29.42F
STAPLES        CLOUDY    68  39  34 S12G18    29.42S
$$
  *****  WEATHER ELSEWHERE ACROSS MINNESOTA  *****

CITY           SKY/WX    TMP DP  RH WIND       PRES   REMARKS
DULUTH         CLOUDY    46  33  60 SE17      29.56F
INTRNTL FALLS  PTSUNNY   60  35  39 S10G20    29.41F
ELY            PTSUNNY   52  30  43 SE10      29.54F
CLOQUET        CLOUDY    43  34  70 E9        29.56F
WHEATON        CLOUDY    66  39  37 W13G18    29.45R
BRAINERD       CLOUDY    68  35  29 S16       29.44F
HIBBING        NOT AVBL
ALEXANDRIA     CLOUDY    70  42  36 SW22G38   29.45F
SAINT CLOUD    CLOUDY    76  37  24 S28G38    29.46F
MINNEAPOLIS    PTSUNNY   80  34  19 S28G41    29.53F
$$

  *****  WEATHER ACROSS SOUTH DAKOTA  *****

CITY           SKY/WX    TMP DP  RH WIND       PRES   REMARKS
SIOUX FALLS    PTSUNNY   80  42  25 SW15G30   29.51F
BROOKINGS      CLOUDY    77  45  31 SW24G31   29.48F
WATERTOWN      CLOUDY    72  40  31 W23G33    29.47S
HURON          CLOUDY    67  38  34 NW25G31   29.51R
SISSETON         N/A     72  35  25 NW23G36   29.43R
ABERDEEN       CLOUDY    68  41  37 NW23G33   29.50R
MITCHELL       CLOUDY    72  35  25 NW22      29.53R
PIERRE         PTSUNNY   67  35  30 NW28G36   29.61R
MOBRIDGE       MOSUNNY   65  29  25 NW24G36   29.57R
RAPID CITY     MOSUNNY   54  30  40 N37G48    29.71S
$$

  *****  SOME WEATHER IN NEARBY STATES *****

CITY           SKY/WX    TMP DP  RH WIND       PRES   REMARKS
GLASGOW MT     MOSUNNY   49  30  48 W29G37    29.73R
GREAT FALLS MT FAIR      50   6  16 W21G36    29.83R
CHEYENNE WY    PTSUNNY   60  27  28 NW17G24   29.78F
SCOTTSBLUFF NE MOSUNNY   73  27  18 NW30G39   29.69S
OMAHA NE       MOSUNNY   83  47  28 S23G37    29.61F
DES MOINES IA  MOSUNNY   82  36  19 S24G32    29.73F
DAVENPORT IA   SUNNY     79  31  17 S24G35    29.85F
CHICAGO IL     MOSUNNY   71  35  26 S10G22    29.93F
EAU CLAIRE WI  MOSUNNY   77  36  22 S16G25    29.64F
LA CROSSE WI   SUNNY     79  34  19 S21G33    29.68F
$$

  *****  SOME NATIONAL WEATHER *****

CITY           SKY/WX    TMP DP  RH WIND       PRES   REMARKS
LA GUARDIA NY  MOSUNNY   49  17  28 NW10      30.07F
RALEIGH NC     MOSUNNY   65  30  27 VRB5      30.12S
ATLANTA GA     PTSUNNY   79  48  33 W7        30.04F
NEW ORLEANS LA CLOUDY    80  63  55 S10       30.04F
OKLAHOMA CITY  MOSUNNY   81  58  45 S18G26    29.77F
ALBUQUERQUE NM PTSUNNY   72  25  17 W22G28    29.93F
SALT LAKE CITY FAIR      48  20  32 NW9G18    30.10F
LOS ANGELES CA FAIR      66  57  72 W14       30.00F
BOISE ID       FAIR      49  23  36 NW10G18   30.17F
SEATTLE WA     PTSUNNY   52  38  58 VRB6      30.28F
$$

*** WEATHER ACROSS MANITOBA...SASKATCHEWAN AND ONTARIO ***
                ***ONTARIO***

CITY           SKY/WX    TMP DP  RH WIND       PRES   REMARKS
GERALDTON      CLOUDY    37  27  65 S10G22    29.85F
THUNDER BAY    CLOUDY    32  32 100 E14G22    29.76F WCI  22
SIOUX LOOKOUT  CLOUDY    46  28  49 SE17G26   29.51F
TORONTO        SUNNY     43   9  24 SE12      30.16F
BIG TROUT LK   MOSUNNY   43  27  52 SE7       29.69F
PICKLE LAKE    CLOUDY    39  27  60 SE15      29.64F
DRYDEN         SUNNY     50  32  50 SE16G23   29.47F
KENORA         NOT AVBL
$$
                *** MANITOBA***

CITY           SKY/WX    TMP DP  RH WIND       PRES   REMARKS
BRANDON        PTSUNNY   54  46  76 NW23G31   29.40R
DAUPHIN        CLOUDY    50  45  81 W22G29    29.37R
ISLAND LAKE    LGT RAIN  34  34 100 E9G17     29.58S
PILOT MOUND      N/A     52  41  66 W14G25      N/A
THE PAS        LGT RAIN  36  34  93 E9        29.43S
THOMPSON       LGT SNOW  21  16  79 NE21      29.67S WCI   6
WINNIPEG       PTSUNNY   57  39  51 W13       29.31F
LYNN LAKE      FLURRIES  14  10  85 NE17G26   29.71R WCI  -3
CHURCHILL      CRYSTALS   1  -2  85 N15       30.03R WCI -18
GILLAM         CLOUDY    16   7  67 NE15G22   29.80F WCI   1
$$
                ***SASKATCHEWAN***

CITY           SKY/WX    TMP DP  RH WIND       PRES   REMARKS
ESTEVAN        PTSUNNY   50  32  50 NW28G37   29.56S
KINDERSLEY     LGT RAIN  43  25  49 W31G45    29.50F
LLOYDMINSTER   CLOUDY    37  32  81 N7        29.38R
PRINCE ALBERT  CLOUDY    41  34  75 W12       29.40F
REGINA         PTSUNNY   48  32  53 NW28G39   29.54S
YORKTON        CLOUDY    43  37  81 W17G23    29.46R
N. BATTLEFORD  LGT RAIN  39  36  87 W9G21     29.42F
LA RONGE       LGT SNOW  32  32 100 NE15G25   29.47R WCI  22
SASKATOON      CLOUDY    43  28  56 W18G26    29.47F
SWIFT CURRENT  LGT RAIN  39  32  75 W30G44    29.59F
$$
NOTE: THESE ARE AUTOMATED STATIONS WITH LIMITED QUALITY CONTROL
      "FAIR" INDICATES FEW OR NO CLOUDS BELOW 12,000 FEET WITH NO
      SIGNIFICANT WEATHER AND/OR OBSTRUCTIONS TO VISIBILITY.
      SKY/WX - SKY CONDITION AND SIGNIFICANT WEATHER.
      TMP - AIR TEMPERATURE.    DP   - DEWPOINT TEMPERATURE.
      RH  - RELATIVE HUMIDITY.  PRES - PRESSURE.
      HX  - HEAT INDEX.         WCI  - WIND CHILL INDEX.
$


USA.gov is the U.S. government's official web portal to all federal, state and local government web resources and services.